Time,TemperatureF,DewpointF,PressureIn,WindDirection,WindDirectionDegrees,WindSpeedMPH,WindSpeedGustMPH,Humidity,HourlyPrecipIn,Conditions,Clouds,dailyrainin,SoftwareType,DateUTC
2013-03-03 00:04:00,23.9,20.9,29.83,NW,315,5.3,-999.0,88,-99.99,,,0.00,Acu-Link.com,2013-03-03 05:04:00,
2013-03-03 00:19:00,23.9,21.1,29.83,WNW,292,7.3,-999.0,89,-99.99,,,0.00,Acu-Link.com,2013-03-03 05:19:00,
2013-03-03 00:34:00,23.9,20.6,29.83,WNW,292,3.7,-999.0,87,-99.99,,,0.00,Acu-Link.com,2013-03-03 05:34:00,
2013-03-03 00:50:00,23.9,20.1,29.83,NNE,22,5.8,-999.0,85,-99.99,,,0.00,Acu-Link.com,2013-03-03 05:50:00,
2013-03-03 01:05:00,23.7,19.9,29.83,West,270,2.7,-999.0,85,-99.99,,,0.00,Acu-Link.com,2013-03-03 06:05:00,
2013-03-03 01:20:00,23.2,21.0,29.83,WNW,292,5.8,-999.0,91,-99.99,,,0.00,Acu-Link.com,2013-03-03 06:20:00,
2013-03-03 01:35:00,22.6,21.1,29.83,WNW,292,2.2,-999.0,94,-99.99,,,0.00,Acu-Link.com,2013-03-03 06:35:00,
2013-03-03 01:50:00,22.5,21.8,29.83,West,270,3.7,-999.0,97,-99.99,,,0.00,Acu-Link.com,2013-03-03 06:50:00,
2013-03-03 02:05:00,22.1,21.4,29.82,WNW,292,5.8,-999.0,97,-99.99,,,0.00,Acu-Link.com,2013-03-03 07:05:00,
2013-03-03 02:21:00,22.1,21.4,29.82,WNW,292,2.2,-999.0,97,-99.99,,,0.00,Acu-Link.com,2013-03-03 07:21:00,
2013-03-03 02:36:00,21.9,21.2,29.81,WNW,292,4.7,-999.0,97,-99.99,,,0.00,Acu-Link.com,2013-03-03 07:36:00,
2013-03-03 02:51:00,21.9,21.2,29.81,WNW,292,3.2,-999.0,97,-99.99,,,0.00,Acu-Link.com,2013-03-03 07:51:00,
2013-03-03 03:06:00,21.7,21.0,29.81,NW,315,3.2,-999.0,97,-99.99,,,0.00,Acu-Link.com,2013-03-03 08:06:00,
2013-03-03 03:21:00,21.6,21.1,29.81,NW,315,4.2,-999.0,98,-99.99,,,0.00,Acu-Link.com,2013-03-03 08:21:00,
2013-03-03 03:37:00,21.6,21.1,29.81,West,270,2.2,-999.0,98,-99.99,,,0.00,Acu-Link.com,2013-03-03 08:37:00,
2013-03-03 03:52:00,21.6,21.1,29.81,WNW,292,3.7,-999.0,98,-99.99,,,0.00,Acu-Link.com,2013-03-03 08:52:00,
2013-03-03 04:18:00,21.4,20.9,29.81,NW,315,4.2,-999.0,98,-99.99,,,0.00,Acu-Link.com,2013-03-03 09:18:00,
2013-03-03 04:33:00,21.4,20.9,29.81,NW,315,3.7,-999.0,98,-99.99,,,0.00,Acu-Link.com,2013-03-03 09:33:00,
2013-03-03 04:48:00,21.4,20.9,29.81,NW,315,2.2,-999.0,98,-99.99,,,0.00,Acu-Link.com,2013-03-03 09:48:00,
2013-03-03 05:04:00,21.0,20.8,29.81,NW,315,4.2,-999.0,99,-99.99,,,0.00,Acu-Link.com,2013-03-03 10:04:00,
2013-03-03 05:19:00,20.8,20.6,29.82,NW,315,3.7,-999.0,99,-99.99,,,0.00,Acu-Link.com,2013-03-03 10:19:00,
2013-03-03 05:34:00,20.8,20.6,29.82,NW,315,3.7,-999.0,99,-99.99,,,0.00,Acu-Link.com,2013-03-03 10:34:00,
2013-03-03 05:49:00,20.8,20.6,29.82,NW,315,2.7,-999.0,99,-99.99,,,0.00,Acu-Link.com,2013-03-03 10:49:00,
2013-03-03 06:04:00,20.8,20.6,29.82,West,270,6.3,-999.0,99,-99.99,,,0.00,Acu-Link.com,2013-03-03 11:04:00,
2013-03-03 06:19:00,20.7,20.5,29.81,West,270,4.2,-999.0,99,-99.99,,,0.00,Acu-Link.com,2013-03-03 11:19:00,
2013-03-03 06:34:00,20.5,20.3,29.82,North,0,3.7,-999.0,99,-99.99,,,0.00,Acu-Link.com,2013-03-03 11:34:00,
2013-03-03 06:50:00,20.1,19.9,29.82,North,0,3.2,-999.0,99,-99.99,,,0.00,Acu-Link.com,2013-03-03 11:50:00,
2013-03-03 07:05:00,20.1,19.9,29.82,NW,315,3.2,-999.0,99,-99.99,,,0.00,Acu-Link.com,2013-03-03 12:05:00,
2013-03-03 07:20:00,19.9,19.4,29.83,West,270,5.8,-999.0,98,-99.99,,,0.00,Acu-Link.com,2013-03-03 12:20:00,
2013-03-03 07:35:00,19.9,19.4,29.83,NW,315,4.7,-999.0,98,-99.99,,,0.00,Acu-Link.com,2013-03-03 12:35:00,
2013-03-03 07:50:00,20.1,19.4,29.83,NW,315,3.2,-999.0,97,-99.99,,,0.00,Acu-Link.com,2013-03-03 12:50:00,
2013-03-03 08:05:00,20.1,19.4,29.83,WNW,292,4.2,-999.0,97,-99.99,,,0.00,Acu-Link.com,2013-03-03 13:05:00,
2013-03-03 08:20:00,20.3,19.3,29.83,NW,315,4.7,-999.0,96,-99.99,,,0.00,Acu-Link.com,2013-03-03 13:20:00,
2013-03-03 08:36:00,20.5,19.3,29.83,WNW,292,4.2,-999.0,95,-99.99,,,0.00,Acu-Link.com,2013-03-03 13:36:00,
2013-03-03 08:51:00,20.3,19.1,29.83,WNW,292,3.7,-999.0,95,-99.99,,,0.00,Acu-Link.com,2013-03-03 13:51:00,
2013-03-03 09:06:00,20.5,19.1,29.84,NNW,337,3.2,-999.0,94,-99.99,,,0.00,Acu-Link.com,2013-03-03 14:06:00,
2013-03-03 09:21:00,20.8,19.1,29.83,West,270,6.3,-999.0,93,-99.99,,,0.00,Acu-Link.com,2013-03-03 14:21:00,
2013-03-03 09:36:00,20.7,18.8,29.84,West,270,6.8,-999.0,92,-99.99,,,0.00,Acu-Link.com,2013-03-03 14:36:00,
2013-03-03 09:51:00,20.7,18.5,29.84,NW,315,3.7,-999.0,91,-99.99,,,0.00,Acu-Link.com,2013-03-03 14:51:00,
2013-03-03 10:07:00,20.8,18.3,29.84,NW,315,3.7,-999.0,90,-99.99,,,0.00,Acu-Link.com,2013-03-03 15:07:00,
2013-03-03 10:22:00,21.0,18.5,29.83,North,0,3.7,-999.0,90,-99.99,,,0.00,Acu-Link.com,2013-03-03 15:22:00,
2013-03-03 10:37:00,21.0,18.3,29.83,WNW,292,5.3,-999.0,89,-99.99,,,0.00,Acu-Link.com,2013-03-03 15:37:00,
2013-03-03 10:52:00,21.4,18.4,29.83,West,270,2.7,-999.0,88,-99.99,,,0.00,Acu-Link.com,2013-03-03 15:52:00,
2013-03-03 11:07:00,21.9,18.4,29.83,NW,315,3.7,-999.0,86,-99.99,,,0.00,Acu-Link.com,2013-03-03 16:07:00,
2013-03-03 11:22:00,22.3,18.2,29.83,NW,315,10.4,-999.0,84,-99.99,,,0.00,Acu-Link.com,2013-03-03 16:22:00,
2013-03-03 11:37:00,23.0,17.8,29.83,NW,315,6.3,-999.0,80,-99.99,,,0.00,Acu-Link.com,2013-03-03 16:37:00,
2013-03-03 11:53:00,24.4,18.5,29.83,WNW,292,6.3,-999.0,78,-99.99,,,0.00,Acu-Link.com,2013-03-03 16:53:00,
2013-03-03 12:08:00,23.7,17.9,29.83,WNW,292,4.2,-999.0,78,-99.99,,,0.00,Acu-Link.com,2013-03-03 17:08:00,
2013-03-03 12:23:00,23.4,17.3,29.82,WNW,292,5.8,-999.0,77,-99.99,,,0.00,Acu-Link.com,2013-03-03 17:23:00,
2013-03-03 12:38:00,23.2,17.1,29.82,WNW,292,8.3,-999.0,77,-99.99,,,0.00,Acu-Link.com,2013-03-03 17:38:00,
2013-03-03 12:53:00,25.3,18.2,29.81,NE,45,5.3,-999.0,74,-99.99,,,0.00,Acu-Link.com,2013-03-03 17:53:00,
2013-03-03 13:08:00,25.3,18.5,29.81,NW,315,7.3,-999.0,75,-99.99,,,0.00,Acu-Link.com,2013-03-03 18:08:00,
2013-03-03 13:23:00,26.4,19.9,29.80,West,270,3.2,-999.0,76,-99.99,,,0.00,Acu-Link.com,2013-03-03 18:23:00,
2013-03-03 13:39:00,24.6,18.7,29.80,WNW,292,5.3,-999.0,78,-99.99,,,0.00,Acu-Link.com,2013-03-03 18:39:00,
2013-03-03 13:54:00,25.0,19.4,29.80,WNW,292,7.8,-999.0,79,-99.99,,,0.00,Acu-Link.com,2013-03-03 18:54:00,
2013-03-03 14:09:00,24.4,19.4,29.80,NNW,337,5.3,-999.0,81,-99.99,,,0.00,Acu-Link.com,2013-03-03 19:09:00,
2013-03-03 14:24:00,23.9,19.5,29.80,West,270,4.2,-999.0,83,-99.99,,,0.00,Acu-Link.com,2013-03-03 19:24:00,
2013-03-03 14:39:00,23.7,19.3,29.80,West,270,5.8,-999.0,83,-99.99,,,0.00,Acu-Link.com,2013-03-03 19:39:00,
2013-03-03 14:55:00,24.6,20.5,29.81,NW,315,9.4,-999.0,84,-99.99,,,0.00,Acu-Link.com,2013-03-03 19:55:00,
2013-03-03 15:10:00,24.8,20.4,29.80,WNW,292,6.3,-999.0,83,-99.99,,,0.00,Acu-Link.com,2013-03-03 20:10:00,
2013-03-03 15:25:00,24.8,19.5,29.80,WNW,292,4.7,-999.0,80,-99.99,,,0.00,Acu-Link.com,2013-03-03 20:25:00,
2013-03-03 15:40:00,24.8,19.8,29.80,WNW,292,3.2,-999.0,81,-99.99,,,0.00,Acu-Link.com,2013-03-03 20:40:00,
2013-03-03 15:55:00,24.4,20.6,29.81,NW,315,7.8,-999.0,85,-99.99,,,0.00,Acu-Link.com,2013-03-03 20:55:00,
2013-03-03 16:11:00,24.3,21.8,29.81,WNW,292,5.3,-999.0,90,-99.99,,,0.00,Acu-Link.com,2013-03-03 21:11:00,
2013-03-03 16:26:00,24.6,21.8,29.81,NW,315,5.3,-999.0,89,-99.99,,,0.00,Acu-Link.com,2013-03-03 21:26:00,
2013-03-03 16:41:00,24.4,22.2,29.81,West,270,2.7,-999.0,91,-99.99,,,0.00,Acu-Link.com,2013-03-03 21:41:00,
2013-03-03 16:56:00,24.3,22.3,29.81,NW,315,3.7,-999.0,92,-99.99,,,0.00,Acu-Link.com,2013-03-03 21:56:00,
2013-03-03 17:11:00,24.3,22.6,29.81,WNW,292,2.7,-999.0,93,-99.99,,,0.00,Acu-Link.com,2013-03-03 22:11:00,
2013-03-03 17:26:00,23.9,21.9,29.82,West,270,2.2,-999.0,92,-99.99,,,0.00,Acu-Link.com,2013-03-03 22:26:00,
2013-03-03 17:42:00,23.7,21.7,29.81,NW,315,5.8,-999.0,92,-99.99,,,0.00,Acu-Link.com,2013-03-03 22:42:00,
2013-03-03 17:57:00,23.5,21.3,29.82,WSW,247,6.3,-999.0,91,-99.99,,,0.00,Acu-Link.com,2013-03-03 22:57:00,
2013-03-03 18:12:00,23.5,21.3,29.82,WNW,292,4.2,-999.0,91,-99.99,,,0.00,Acu-Link.com,2013-03-03 23:12:00,
2013-03-03 18:27:00,23.5,20.7,29.83,West,270,4.7,-999.0,89,-99.99,,,0.00,Acu-Link.com,2013-03-03 23:27:00,
2013-03-03 18:42:00,23.5,20.7,29.83,WNW,292,4.7,-999.0,89,-99.99,,,0.00,Acu-Link.com,2013-03-03 23:42:00,
2013-03-03 18:57:00,23.4,20.6,29.83,WNW,292,7.3,-999.0,89,-99.99,,,0.00,Acu-Link.com,2013-03-03 23:57:00,
2013-03-03 19:12:00,23.4,20.4,29.83,WNW,292,5.3,-999.0,88,-99.99,,,0.00,Acu-Link.com,2013-03-04 00:12:00,
2013-03-03 19:27:00,23.4,20.4,29.84,NW,315,5.3,-999.0,88,-99.99,,,0.00,Acu-Link.com,2013-03-04 00:27:00,
2013-03-03 19:43:00,23.5,20.5,29.84,WNW,292,4.7,-999.0,88,-99.99,,,0.00,Acu-Link.com,2013-03-04 00:43:00,
2013-03-03 19:58:00,23.5,20.5,29.84,WNW,292,3.2,-999.0,88,-99.99,,,0.00,Acu-Link.com,2013-03-04 00:58:00,
2013-03-03 20:13:00,23.5,20.7,29.85,West,270,4.7,-999.0,89,-99.99,,,0.00,Acu-Link.com,2013-03-04 01:13:00,
2013-03-03 20:28:00,23.5,21.3,29.85,NNW,337,7.3,-999.0,91,-99.99,,,0.00,Acu-Link.com,2013-03-04 01:28:00,
2013-03-03 20:43:00,23.4,21.2,29.86,WNW,292,5.8,-999.0,91,-99.99,,,0.00,Acu-Link.com,2013-03-04 01:43:00,
2013-03-03 20:58:00,23.4,21.2,29.86,WNW,292,12.5,-999.0,91,-99.99,,,0.00,Acu-Link.com,2013-03-04 01:58:00,
2013-03-03 21:14:00,23.2,20.2,29.86,West,270,4.7,-999.0,88,-99.99,,,0.00,Acu-Link.com,2013-03-04 02:14:00,
2013-03-03 21:29:00,23.2,19.6,29.86,WNW,292,5.8,-999.0,86,-99.99,,,0.00,Acu-Link.com,2013-03-04 02:29:00,
2013-03-03 21:44:00,23.2,19.6,29.86,WNW,292,5.3,-999.0,86,-99.99,,,0.00,Acu-Link.com,2013-03-04 02:44:00,
2013-03-03 21:59:00,23.2,19.4,29.86,WSW,247,4.2,-999.0,85,-99.99,,,0.00,Acu-Link.com,2013-03-04 02:59:00,
2013-03-03 22:14:00,23.2,19.1,29.86,WNW,292,3.7,-999.0,84,-99.99,,,0.00,Acu-Link.com,2013-03-04 03:14:00,
2013-03-03 22:29:00,22.3,19.8,29.86,WNW,292,5.3,-999.0,90,-99.99,,,0.00,Acu-Link.com,2013-03-04 03:29:00,
2013-03-03 22:44:00,21.9,19.9,29.86,WNW,292,3.2,-999.0,92,-99.99,,,0.00,Acu-Link.com,2013-03-04 03:44:00,
2013-03-03 23:00:00,21.7,20.0,29.86,NW,315,4.2,-999.0,93,-99.99,,,0.00,Acu-Link.com,2013-03-04 04:00:00,
2013-03-03 23:15:00,21.4,19.7,29.86,WNW,292,3.7,-999.0,93,-99.99,,,0.00,Acu-Link.com,2013-03-04 04:15:00,
2013-03-03 23:30:00,21.0,19.3,29.86,NW,315,5.3,-999.0,93,-99.99,,,0.00,Acu-Link.com,2013-03-04 04:30:00,
2013-03-03 23:46:00,20.7,19.0,29.86,WNW,292,7.8,-999.0,93,-99.99,,,0.00,Acu-Link.com,2013-03-04 04:46:00,